Danbury, CT

4:40 PM EDT on September 28, 2016 (GMT -0400)
Danbury Municipal

Weather History for KDXR - January, 2013

Change the Weather History Date:

Tuesday, January 15, 2013

  Actual Average Record
Temperature  
Mean Temperature 34 °F -  
Max Temperature 37 °F 32 °F 54 °F (1962)
Min Temperature 32 °F 18 °F -9 °F (1957)
Degree Days  
Heating Degree Days 30    
Moisture  
Dew Point 25 °F    
Average Humidity 69    
Maximum Humidity 92    
Minimum Humidity 59    
Precipitation  
Precipitation 0.08 in - - ()
Sea Level Pressure  
Sea Level Pressure 30.29 in    
Wind  
Wind Speed 4 mph (North)    
Max Wind Speed 8 mph    
Max Gust Speed -    
Visibility 10 miles    
Events Rain    
Averages and records for this station are not official NWS values.
T = Trace of Precipitation, MM = Missing Value Source: NWS Daily Summary

Daily Weather History Graph

Daily Weather History Graph

Search for Another Location

Airport or City:

Trip Planner

Search our weather history database for the weather conditions in past years. The results will help you decide how hot, cold, wet, or windy it might be!

Date:

Astronomy

Jan. 15, 2013 Rise Set
Actual Time 7:17 AM EST 4:49 PM EST
Civil Twilight 6:47 AM EST 5:20 PM EST
Nautical Twilight 6:13 AM EST 5:54 PM EST
Astronomical Twilight 5:39 AM EST 6:27 PM EST
Moon 9:18 AM EST (1/15) 9:40 PM EST (1/15)
Length of Visible Light 10h 33m
Length of Day
9h 32m
Waxing Crescent, 19% of the Moon is Illuminated
Jan 15
Waxing Crescent
Jan 18
First Quarter
Jan 26
Full
Feb 3
Last Quarter
Feb 10
New

Hourly Weather History & Observations

Time (EST) Temp. Windchill Dew Point Humidity Pressure Visibility Wind Dir Wind Speed Gust Speed Precip Events Conditions
12:53 AM 33.1 °F - 30.9 °F 92% 30.30 in 7.0 mi Calm Calm - 0.04 in Rain Light Rain
1:23 AM 33.8 °F 29.6 °F 28.4 °F 81% 30.27 in 6.0 mi NNE 4.6 mph - 0.03 in Rain Light Freezing Rain
1:53 AM 34.0 °F 29.8 °F 28.0 °F 79% 30.29 in 10.0 mi North 4.6 mph - 0.03 in Rain Light Freezing Rain
2:06 AM 33.8 °F 28.6 °F 28.4 °F 81% 30.27 in 10.0 mi Variable 5.8 mph - 0.00 in   Overcast
2:53 AM 34.0 °F 28.8 °F 27.0 °F 75% 30.28 in 10.0 mi NNW 5.8 mph - 0.01 in Rain Light Rain
3:53 AM 34.0 °F 31.0 °F 28.0 °F 79% 30.25 in 10.0 mi North 3.5 mph - 0.00 in   Mostly Cloudy
4:53 AM 34.0 °F - 27.0 °F 75% 30.25 in 10.0 mi Calm Calm - N/A   Overcast
6:53 AM 33.1 °F 30.0 °F 25.0 °F 72% 30.30 in 10.0 mi North 3.5 mph - N/A   Clear
7:53 AM 32.0 °F 24.8 °F 24.1 °F 73% 30.32 in 10.0 mi North 8.1 mph - N/A   Clear
8:53 AM 33.1 °F 30.0 °F 24.1 °F 70% 30.35 in 10.0 mi Variable 3.5 mph - N/A   Mostly Cloudy
9:53 AM 34.0 °F 28.8 °F 24.1 °F 67% 30.35 in 10.0 mi NNE 5.8 mph - N/A   Mostly Cloudy
10:53 AM 34.0 °F 29.8 °F 24.1 °F 67% 30.34 in 10.0 mi North 4.6 mph - N/A   Mostly Cloudy
11:53 AM 36.0 °F 33.3 °F 25.0 °F 64% 30.32 in 10.0 mi North 3.5 mph - N/A   Mostly Cloudy
12:53 PM 36.0 °F 30.3 °F 25.0 °F 64% 30.30 in 10.0 mi North 6.9 mph - N/A   Partly Cloudy
1:53 PM 36.0 °F 30.3 °F 25.0 °F 64% 30.28 in 10.0 mi North 6.9 mph - N/A   Clear
2:53 PM 37.0 °F 31.6 °F 24.1 °F 59% 30.27 in 10.0 mi NNE 6.9 mph - N/A   Partly Cloudy
3:53 PM 36.0 °F 30.3 °F 24.1 °F 62% 30.29 in 10.0 mi North 6.9 mph - N/A   Clear
4:53 PM 36.0 °F 33.3 °F 24.1 °F 62% 30.29 in 10.0 mi North 3.5 mph - N/A   Overcast
5:53 PM 35.1 °F 30.1 °F 23.0 °F 61% 30.29 in 10.0 mi NNW 5.8 mph - N/A   Mostly Cloudy
6:53 PM 35.1 °F 30.1 °F 23.0 °F 61% 30.29 in 10.0 mi NNW 5.8 mph - N/A   Overcast
7:53 PM 35.1 °F - 21.9 °F 59% 30.28 in 10.0 mi Calm Calm - N/A   Overcast
8:53 PM 35.1 °F 30.1 °F 24.1 °F 64% 30.27 in 10.0 mi North 5.8 mph - N/A   Overcast
9:53 PM 35.1 °F - 23.0 °F 61% 30.25 in 10.0 mi Calm Calm - N/A   Overcast
10:53 PM 34.0 °F 28.8 °F 21.9 °F 61% 30.26 in 10.0 mi NNE 5.8 mph - N/A   Overcast
11:53 PM 34.0 °F 31.0 °F 21.9 °F 61% 30.25 in 10.0 mi NNE 3.5 mph - N/A   Overcast